Showing default

GNOMES-5, 60574

Orbit data source: Space-Track

GNOMES-5, 60574 is a payload satellite owned by PlanetiQ (US) in SSO that was launched on Fri, 16 Aug 2024 UTC via an FALCON 9 launch vehicle from the Air Force Western Test Range (AFWTR). Payload-class satellites include a variety of spacecraft equipped with specific instruments for various scientific and technological missions. These include communications satellites like Starlink; space stations such as the ISS; scientific satellites like the Hubble; Earth observation satellites from companies like Planet Labs, Umbra, and HawkEye 360; GPS; miniature CubeSats for education and research; and military/defense satellites.

Loading next visibility...
Identifier
60574, 2024-149DL
Orbit
SSO
Country
Flag of USUS
Related business
Manufacturer
Blue Canyon
Mission
Operational Commercial Communications
Bus & Motor
XSAT, Unknown motor
Mass
~41 kg wet, ~41 kg dry
Launch date (UTC)
2024-08-16 (2 years ago)
Launch vehicle
FALCON 9
Launch site
Air Force Western Test Range (AFWTR)
Object type
Payload
Rocket body
Debris
Shape & HBR
Box + 2 Pan, 0.3 m
Radar Cross Section
0.162 m², Medium (>0.1 m² and < 1m²)

Expand to show TLE details & history
Last TLE update: 5 hours ago

TLE from 5 hours ago
0 GNOMES-5
1 60574U 24149DL  26220.21584649  .00001592  00000-0  12751-3 0  9999
2 60574  97.7145 297.9545 0007025 333.4839  26.6025 15.01577548107962
Epoch: 2026-08-08T05:10Z
TLE epoch observation values (Epoch: 2026-08-08T05:10:49.136Z)
Latitude
-0.00003°
Longitude
-96.48061°
Altitude
560.728 km
Speed
7.583 km/s
True Right ascension
19h 51m 49s
True Declination
0° 00' 00"
Sunlit
Object was in full shadow at epoch
Visualization orbit readout
Latitude
Unknown
Longitude
Unknown
Altitude
Unknown
Speed
Unknown
Apparent Right ascension
Unknown
Apparent Declination
Unknown
Sunlit
N/A
Visualization observer readout
Local Sidereal Time
00:06:56
Azimuth
Unknown
Elevation
Unknown
Doppler factor
Unknown
Orbital elements
Apogee altitude
563.908 km
Perigee altitude
554.162 km
Semi-major axis
6,937.172 km
Eccentricity
0.0007
Inclination
97.7145°
RAAN
297.9545°
Arg. of periapsis
333.4839°
True anomaly
26.63858°
Mean anomaly
26.6025°
Eccentric anomaly
26.62054°
Mean motion
3.75638 °/min
Orbital period
95.84 mins
BSTAR
0.00012751
Loading maneuver chart data...
Computing Atmospheric mass density...
Loading historical data...
Loading historical data...
Loading historical data...
Loading historical data...
Loading historical data...
Loading historical data...
Loading historical data...

Documentation

Showing up to 5 results
|